Race Results for
Prescott Punisher
Prescott, AZ
(Event Information)
View By:
Cross Country on 04/04/2009

Note: Ranking points are NOT upgrade points. An explanation of ranking points can be found here.


Men - Single Speed Novice

 Place Points NameCity, StateTime USAC #BibTeam
1 Chad Kasmar   1:28:53  440 
2 Matthew Pacheco   Flagstaff, AZ1:34:38 80993  113 
3 Robert McNulty   Phoenix, AZ1:36:57 125724  476 
4 Jose Avila   1:42:33  109 
5 Terry Jasper   Glendale, AZ1:42:53 128084  44 
6 Guy Bell   Glendale, AZ1:48:46 142507  149 
7 Octavio Real   1:48:48  510 
8 Luke Currell   1:52:35  1070 

Men - Single Speed Advanced

 Place Points NameCity, StateTime USAC #BibTeam
1 Scott Countryman   Flagstaff, AZ2:03:27 258025  539 
2 Linden Lane   Flagstaff, AZ2:20:57 202511  612 
DNF Giorgio Filippinetti   Prescott, AZ 274592  DNF 

Men - Rock Crusher

 Place Points NameCity, StateTime USAC #BibTeam
1 Mike Ciasca   1:48:32  192 
2 Jamie Seegert   1:58:52  648 
3 Kurt Mindy   Anthem, AZ2:01:59 166882  117 
4 Keith Wilson   Tempe, AZ2:02:45 220715  661 
5 Nicholas Brehm   2:14:16  606 
6 Jonathan Devich   2:20:36  1030 
DNF Tony Amos   DNF  404 
DNF Harry Benton   DNF  156 

Men - Marathon

 Place Points NameCity, StateTime USAC #BibTeam
1 Brian Bennett   Phoenix, AZ3:28:28 138282  43 
2 Robert LaRoche   Scottsdale, AZ3:42:18 20390  454 
3 Kyle Kraakevik   Scottsdale, AZ3:49:47 232125  277 
4 Chris Yeager   3:50:50  1056 
5 Chuck Wheeler   3:51:10  642 
6 Arthur MacFarland   Cave Creek, AZ3:54:40 79108  466 
7 Michael O'Donnell   Flagstaff, AZ3:55:29 212160  492 
8 Lane Sanders   Gilbert, AZ4:00:40 196626  74 
9 Clint Hosman   Mesa, AZ4:04:42 182454  42 
10 Robert Decot   Flagstaff, AZ4:12:25 9024  186 
11 Brandon Hedberg   Flagstaff, AZ4:25:00 240235  428 
12 Mark Wille   Flagstaff, AZ4:28:13 196295  118 
13 Steve Larson   4:49:26  455 
14 Pete Fioravanti   Scottsdale, AZ4:55:23 165635  193 
DNF Joe Sabijon   DNF  1058 
DNF Tom Crosetti   Mesa, AZDNF 156147  97 
DNF Chris Capages   Phoenix, AZDNF 151400  199 
DNF Chris Wilkens   Flagstaff, AZDNF 149001  1054 

Men - Cat 3 - Junior - 1-10

 Place Points NameCity, StateTime USAC #BibTeam
1 David Polley   Peoria, AZ0:12:03 271015  297 
2 IZAAK WOOD   0:20:07  1055 

Men - Cat 3 - Junior - 11-12

 Place Points NameCity, StateTime USAC #BibTeam
1 Brandon McNulty   Phoenix, AZ0:17:57 275694  298 
2 DENNY DROTZMANN   0:19:11  288 
3 Erowynn Maul-Latham   Flagstaff, AZ0:20:01 262632  315 
4 KEAGAN WEBSTER   0:22:26  316 
5 JASON CHRISTLEY   0:23:09  170 
6 RYAN DAUENHAUER   0:24:11  184 
7 CHASE FOSTER   0:24:47  269 
8 BEAU MUNGER   0:27:45  670 
9 BRIDGES HUNTER   0:28:00  310 
10 Westley Grove   0:33:21  300 
11 ROSS LIVELY   0:35:16  305 

Men - Cat 3 - Junior - 13-14

 Place Points NameCity, StateTime USAC #BibTeam
1 Garrett Chott   Gilbert, AZ1:12:42 286463  294 
2 Zachary Edwards   Flagstaff, AZ1:18:07 219148  284 
3 Jordon Lindberg   Phoenix, AZ1:30:17 256972  271 
4 Matthew Gylsson   1:33:34  410 
5 Lukas Cronin   1:36:24  303 
6 Logan Wallace   2:03:39  1051 
7 Jordan Camoriano   2:46:31  1028 

Men - Cat 3 - Junior - 15-18

 Place Points NameCity, StateTime USAC #BibTeam
1 Nick Key   1:06:56  443 
2 Davis Hoyt   1:09:27  292 
3 Ian Keller   Gilbert, AZ1:11:02 262213  1064 
4 Kenny Polley   Peoria, AZ1:12:35 255203  274 
5 John Ross Peckardt   1:19:42  94 
6 Adam Humphrey   1:23:33  323 
7 Derek Larson   1:31:24  261 
8 Austin Hunter   1:57:49  312 
9 Alex Leblanc   1:58:07  1038 
10 Larry Bieneman   1:59:38  1063 
11 Dallin Godfrey   2:12:17  324 

Men - Cat 3 - Senior - 19-29

 Place Points NameCity, StateTime USAC #BibTeam
1 Jason Hall   1:02:57  419 
2 Dan Peckardt   1:03:25  95 
3 Blaine Clark   1:04:55  564 
4 Robert Rose   1:07:29  71 
5 Skyler O'neil   2:04:50  1045 
DNF Miguel Carrazco   DNF  528 

Men - Cat 3 - Masters - 30-39

 Place Points NameCity, StateTime USAC #BibTeam
1 TRAPPER STEINLE   Littleton, CO1:00:18 288416  1049 
2 Ryan Mortensen   1:01:59  483 
3 Rob Griffin   1:09:21  1065 
4 Stephen Novy   Boston, MA1:10:23 259179  489 
5 Kelly Hartle   1:11:08  38 
6 Alan Stephenson   1:12:39  588 
7 Noel Gomez   1:13:51  36 
8 Nick Nocella   1:14:33  64 
9 Michael Sainz   1:19:38  72 
10 Finn Miskvil   1:19:39  1061 
11 Jeff Welch   1:20:22  1052 
12 David DeNitto   Phoenix, AZ1:21:44 257745  188 
13 Jeffrey Barber   1:25:44  561 
14 Branden Jordan   1:28:26  1066 
15 Brannen Maples   1:32:14  59 
16 Jeff Gardner   1:44:36  1033 
17 Chad Mason   1:49:22  1041 
18 Jacob Shumatr   2:10:31  77 
DNF Terry Staten   DNF  78 
DNF Zac Seasly   DNF  522 

Men - Cat 3 - Masters - 40-49

 Place Points NameCity, StateTime USAC #BibTeam
1 Mike Park   1:07:13  75 
2 Brandon Rumpf   1:08:21  516 
3 Paul Dellorco   1:11:51  187 
4 Steven Van Coillie   1:12:11  1050 
5 Vern Peterson   1:17:46  115 
6 Patrick Kivin   1:18:20  672 
7 Bill Lindberg   1:19:04  135 
8 Mike Tisdale   1:23:29  129 
9 William Pence   1:24:58  1046 
10 Roy Key   1:26:32  442 
11 Mike Sanchez   1:26:44  637 
12 Damon Glysson   1:32:05  409 
13 Eric Olson   1:34:03  493 
14 Bruce Lagman   1:43:27  452 
15 Ken Segel   Phoenix, AZ1:52:48 265120  523 
16 John Peckardt   1:54:05  93 
17 Vincent Scarfo   1:55:38  1047 
DNF Timothy Gillis   DNF  667 
DNF Ron Alderfer   DNF  1024 
DNF Dennis Low   DNF  1039 

Men - Cat 3 - Masters - 50-59

 Place Points NameCity, StateTime USAC #BibTeam
1 Terry Sontag   1:17:25  586 
2 Ralph Jennings   1:20:15  128 
3 Tony Bartholoma   1:23:15  1026 
4 Joseph Miller   Phoenix, AZ1:29:14 255705  479 
5 Skeeter Schulz   1:38:36  520 
6 Reggie Currie   1:51:27  30 
7 Tim Spicer   1:55:22  602 
8 Kirk Fleming   2:01:02  669 
DNF Jay Stewart   DNF  1062 

Men - Cat 2 - Junior - 1-18

 Place Points NameCity, StateTime USAC #BibTeam
1 Cypress Gorry   Brevard, NC1:27:01 219681  267 
2 TYLER SANDOVAL   Flagstaff, AZ1:34:33 272774  272 
3 Colton Taylor   Mesa, AZ1:36:49 271968  263 
4 Kyle Willett   1:36:58  276 
5 Travis Glysson   1:38:14  408 
6 Tanner Leslie   1:47:47  296 
7 Zach Ward   1:56:27  546 
DNF Evan Brody   DNF  320 

Men - Cat 2 - Senior - 19-29

 Place Points NameCity, StateTime USAC #BibTeam
1 Wade Phillips   1:27:35  499 
2 Brian Trader   1:38:28  86 
3 Rob Ferrin   1:46:48  1031 

Men - Cat 2 - Master - 30-39

 Place Points NameCity, StateTime USAC #BibTeam
1 Brian Barrett   Mesa, AZ1:26:47 185409  147 
2 Kenneth Allen   Mesa, AZ1:27:33 282090  403 
3 Craig Gregory   1:32:08  103 
4 Nathan Andrews   1:32:39  145 
5 James Gerber   1:32:40  35 
6 Zach Radu   1:33:00  506 
7 Jonathon Bird   Phoenix, AZ1:33:36 338656  151 
8 Jacob Phillips   1:33:46  652 
9 Eric Gust   1:35:59  417 
10 Chad Sheirbon   Phoenix, AZ1:37:58 247041  598 
11 Josh Person   1:39:58  101 
12 Tim Misavage   1:45:40  481 
13 Rodrigo Rada   1:46:46  614 
14 Brian Murphy   Goodyear, AZ1:48:06 256483  62 
15 Tom Stack   1:50:13  587 
16 Greg Trone   1:50:28  1069 
DNF Sonny Morgan   DNF  525 
DNF David Guenthardt   DNF  1035 

Men - Cat 2 - Master - 40-49

 Place Points NameCity, StateTime USAC #BibTeam
1 Lorne Mckay   Scottsdale, AZ1:31:13 271389  655 
2 Luke Dale   Gilbert, AZ1:32:51 252667  608 
3 Grant Taylor   Mesa, AZ1:37:22 210372  535 
4 Jeffry Hallums   1:37:24  610 
5 John Foster   1:38:10  401 
6 Kirk Damron   Phoenix, AZ1:40:27 156876  1029 
7 Dean Hevithorn   1:41:23  41 
8 Brian Roberts   Goodyear, AZ1:42:14 93633  514 
9 Charles Bruni   Flagstaff, AZ1:43:54 288078  158 
10 Jim Chott   Gilbert, AZ1:44:06 286462  169 
11 Mike Haas   1:44:28  37 
12 Kenneth Koch   Dewey, AZ1:45:03 255654  1037 
13 Keith Hubbard   1:47:52  432 
14 Warren Gibb   1:51:48  1034 
15 Mark Venti   Mesa, AZ1:53:02 149570  541 
16 Noel Garcia   Phoenix, AZ1:55:21 177810  558 
DNF Greg Carmichael   DNF  108 
DNF David Craw   Mesa, AZDNF 271720  29 
DNF George Sperry   DNF  120 
DNF David Peck   DNF  125 
DNF Ken Ross   DNF  515 
DNF Michael Vines   DNF  542 

Men - Cat 2 - Master - 50-59

 Place Points NameCity, StateTime USAC #BibTeam
1 Rod Andrade   1:39:22  630 
2 Mike Hartman   1:51:11  426 
3 Steve Gross   1:53:43  415 
4 Michael Bolding   Scottsdale, AZ1:54:14 4129  152 
5 Anson Gilbert   Mesa, AZ2:01:33 13219  407 
6 Michael Cronin   Cave Creek, AZ2:15:13 289037  28 
7 Al Gordell   2:32:45  663 

Men - Cat 2 - Master - 60-99

 Place Points NameCity, StateTime USAC #BibTeam
1 Stephen Hughes   Scottsdale, AZ1:47:36 141111  433 
2 Douglas Brown   1:59:59  157 
3 Robert McDermott   Goodyear, AZ2:14:08 255410  471 
4 David Jordan   Taylor, AZ3:06:24 18270  133 

Men - Cat 1 - Junior - 1-18

 Place Points NameCity, StateTime USAC #BibTeam
1 Daniel Conley   Payson, AZ1:52:06 251389  273 
2 Kallan Creager   Queen Creek, AZ2:00:13 255030  281 
3 Sam Gross   Cave Creek2:04:46 292354  414 

Men - Cat 1 - Senior - 19-29

 Place Points NameCity, StateTime USAC #BibTeam
1 Zachary Keller   Mesa, AZ1:49:39 257387  48 
2 Michael Cronin   Tempe, AZ1:50:02 177765  181 
3 Austin Anliker   Flagstaff, AZ2:01:08 282379  1025 
4 Patrick Wiatrolik   Clarkdale, AZ2:05:00 245390  623 
5 Charles Whitney   Gallup, NM2:21:54 225646  1053 
DNF Ryan Geiger   Flagstaff, AZDNF 258285  293 

Men - Cat 1 - Masters - 30-39

 Place Points NameCity, StateTime USAC #BibTeam
1 Thomas Faeh   Flagstaff, AZ1:50:00 181963  650 
2 Robert Shaver   El Paso, TX1:53:09 56061  76 
3 Zach Stanford   Sedona, AZ1:54:51 192062  527 
4 Kyle Akin   Tucson, AZ1:55:43 203522  138 
5 Timothy Allen   Tucson, AZ1:56:09 1440  139 
6 Jerrad Cooper   Flagstaff, AZ1:59:18 140267  537 
7 Gerard Prosnier   Scottsdale, AZ2:00:37 142188  1060 
8 Benji Kozuch   Tucson, AZ2:04:24 258737  570 
9 Colby Moeller   Tucson, AZ2:04:55 132047  482 
10 Edwin Escamilla   Mexico City2:08:55 248032  196 
11 Jason Lohman   Prescott Valley, AZ2:17:45 21472  461 
DNF Chris Latham   Flagstaff, AZDNF 20460  54 
DNF Mike Wimbush   Phoenix, AZDNF 285946  553 

Men - Cat 1 - Masters - 40-49

 Place Points NameCity, StateTime USAC #BibTeam
1 Daryll McKenzie   Marana, AZ1:54:21 138171  475 
2 Daniel De Mos   Tiburon, CA1:56:39 244512  185 
3 Eric Lynch   Phoenix, AZ1:56:58 263726  464 
4 Craig Raney   Lake Havasu City, AZ1:57:19 138202  508 
5 Kenneth Kimble   Scottsdale, AZ1:58:50 289034  444 
6 John Shumaker   2:02:59  617 
7 Daniel King   Phoenix, AZ2:04:22 154515  665 
8 Keith Koller   Yuma, AZ2:05:06 19606  448 
9 Michael Perry   Scottsdale, AZ2:07:00 27806  497 
10 Carlos Zamora   Phoenix, AZ2:10:15 52255  557 
11 Chris Grove   Flagstaff, AZ2:12:07 14295  416 
DNF Manny Ortiz   Waddell, AZDNF 230172  494 

Men - Cat 1 - Masters - 50-59

 Place Points NameCity, StateTime USAC #BibTeam
1 Wayne Gorry   Payson, AZ2:01:49 13741  91 
2 Keith Tomei   Tucson, AZ2:07:25 40955  538 
3 John Camoriano   Mesa, AZ2:11:31 254809  671 
4 Robert Gooch   Flagstaff, AZ2:25:17 196289  411 
5 Kevin Quigley   Flagstaff, AZ2:25:25 175298  505 
6 Alexander Koss   Flagstaff, AZ2:26:42 236463  449 
DNF Michael Whitehead   Scottsdale, AZDNF 289036  548 

Men - Pro

 Place Points NameCity, StateTime USAC #BibTeam
1 Scott Keller   Sedona, AZ2:10:25 125723  
2 Lance Runyan   Mesa, AZ2:10:28 201139  
3 Kamden Reedy   Mesa, AZ2:12:02 155036  
4 Jeff Herrera   Tempe, AZ2:13:24 210732  
5 Tim Allen   Golden, CO2:13:34 161831  20 
6 Tim Bolton   Tucson, AZ2:14:13 117086  1067 
7 Jason Sager   Ogden, UT2:14:24 31059  1068 
8 Benjamin Webster   Mesa, AZ2:14:35 211019  
9 Kyle Reedy   Mesa, AZ2:17:07 195891  16 
10 Eric Salstrand   Phoenix, AZ2:17:13 176476  14 
11 Christopher Suter   Flagstaff, AZ2:19:20 194778  
12 Randall Jacobs   Brighton, MA2:19:31 266868  1036 
13 Rene Ortega   Tucson, AZ2:20:30 127318  13 
14 Chewy Aitken   2:21:40  19 
15 Benjamin Sullivan   Missoula, MT2:22:11 178006  15 
16 Christopher Hull   Flagstaff, AZ2:23:58 187518  11 
17 Domenico Futia   Maple Valley, WA2:24:22 176687  17 
18 John Sawasky   Flagstaff, AZ2:27:37 80638  
19 Rich Weis   Gilbert, AZ2:32:29 57466  674 
20 Joshua Powers   Phoenix, AZ2:33:55 91975  634 
DNF Jeffrey Harris   Sedona, AZDNF 224718  21 
DNF Tom O'Brien   Scottsdale, AZDNF 270662  12 

Women - Single Speed

 Place Points NameCity, StateTime USAC #BibTeam
1 Janet Kerby   2:01:51  441 
2 Anne Thames-real   2:25:37  536 

Women - Marathon

 Place Points NameCity, StateTime USAC #BibTeam
1 Jeri Ben-horin   4:20:04  604 
2 Agnes Drogi   4:20:05  1057 
3 Beth Steen   4:32:53  79 
4 Lori Wheeler   4:45:06  1059 

Women - Cat 3 - Junior - 1-10

 Place Points NameCity, StateTime USAC #BibTeam
1 JESSICA MILLER   0:11:37  1042 
2 JORDAN HUNTER   0:11:43  311 
3 HAILEY NEEDHAM   0:15:58  666 

Women - Cat 3 - Junior - 11-12

 Place Points NameCity, StateTime USAC #BibTeam
1 OLILVIA AUSTIN   0:12:44  146 
2 TESS SIEMENS   0:16:37  301 
3 LILY PUTMAN   0:16:38  313 
4 MIRANDA NEEDHAM   0:20:57  574 

Women - Cat 3 - Junior - 13-14

 Place Points NameCity, StateTime USAC #BibTeam
1 MARA LEAKE   0:20:47  283 
2 AMBER STILWELL   0:22:32  531 
3 LAUREN REAL   0:31:45  509 

Women - Cat 3 - Junior - 15-18

 Place Points NameCity, StateTime USAC #BibTeam
1 Myia Wood   Mesa, AZ1:29:49 256810  262 
2 Celeste (p-nut) Garcia   1:42:28  282 
3 Allie Leslie   1:54:45  287 
4 Mandie Cupp   1:54:53  302 
5 Ashley Stilwell   2:13:31  532 
6 Kyia Lively   3:02:57  304 

Women - Cat 3 - Masters - 19-39

 Place Points NameCity, StateTime USAC #BibTeam
1 Cydney Rumpf   1:26:10  517 
2 Erin Huizen   1:29:05  626 
3 Angie Nocella   Surprise, AZ1:40:44 288246  65 
4 Jessa Stilwell   1:47:08  533 
5 Aubrey Garcia   2:07:32  286 
6 Krista Manus   2:51:55  468 
DNF Cheryl Ekstrom   Tucson, AZdnf 142179  195 

Women - Cat 3 - Master - 40-49

 Place Points NameCity, StateTime USAC #BibTeam
1 Deborah Huntley   1:53:14  436 
2 Susanne Cox   2:04:32  26 
3 Zoe Cohen   2:17:57  173 

Women - Cat 2 - Masters - 19-39

 Place Points NameCity, StateTime USAC #BibTeam
1 Tina Stocking   1:57:59  603 
2 Kelly McFall   Flagstaff, AZ2:00:41 218180  472 
3 Pam Lowie   2:21:13  462 
4 Elaine Seasly   2:49:50  521 
5 Rachel Yellowhair-Hicks   2:52:56  556 

Women - Cat 2 - Master - 40-49

 Place Points NameCity, StateTime USAC #BibTeam
1 Tammy Begler   2:11:56  148 
2 Wendy Macfarland   2:17:49  465 
3 Joanne Geiger   2:46:13  406 
4 Liane Ehrich   2:57:59  194 
5 Lisa Pivin   3:30:38  500 
DNF Anita Switzer   Flagstaff, AZDNF 215551  110 
DNF Janet Capages   Phoenix, AZDNF 141234  163 

Women - Cat 1 - Masters - 19-39

 Place Points NameCity, StateTime USAC #BibTeam
1 Amber Naughton   Flagstaff, AZ1:49:25 87716  656 
2 Katie Monahan   Carbondale, CO1:49:59 120538  1043 
3 Jennifer Pullen   Tucson, AZ1:58:12 129388  67 
4 Jennifer Camoriano   Mesa, AZ1:58:24 254808  162 

Women - Cat 1 - Master - 40-49

 Place Points NameCity, StateTime USAC #BibTeam
1 Sue Rawley   Flagstaff, AZ1:53:13 29243  114 
2 Deborah Martin-Wille   Flagstaff, AZ2:00:37 196287  119 
3 Stephanie Hawthorne   Flagstaff, AZ2:13:26 275692  427 

Women - Pro

 Place Points NameCity, StateTime USAC #BibTeam
1 Sara Stanford   Prescott, AZ2:13:38 210728  18 
2 Jennifer Sica   Flagstaff, AZ2:24:40 172806  
3 Christina Betz   Phoenix, AZ2:33:38 210738  601 

Report missing or incorrect license numbers

Volkswagen
Sierra NevadaUSACDFCUOREBonk BreakerOSMOShimanoSpy
UCI USA Cycling is the official governing body for all disciplines of competitive cycling in the United States. The 501c3, membership-based organization aims both to achieve sustained success in international cycling competition and to grow competitive cycling in America while delivering an exceptional customer experience.
View Children's Online Privacy Protection Policy
US Olympic Committee